Torna al catalogo

STARLINK-6345

AttivoComunicazioniVLEO
NORAD 56790·PAYLOAD·🇺🇸 United States

Lanciato May 31, 2023 da Vandenberg Space Force Base

Loading…

Prossimi Passaggi (prossime 24 ore)

TLE

AggiornatoSource: CelesTrak SupGP

Epoca: Sep 15, 2026, 02:30 UTC

1 56790C 23078Z   26258.10465278 -.00000105  00000+0 -88084-5 0  2581
2 56790  70.0018 186.9176 0003201 270.9299 240.1669 14.98329896    15

Traccia STARLINK-6345 in tempo reale con AllMySat

Download on the App Store